Home   Weather   Troisdorf   Past weeks
Flag for Germany

Past Weather in Troisdorf, North Rhine-Westphalia, Germany — Yesterday and Last 2 Weeks

Now
63 °F

Sunny.


Feels Like: 63 °F
Forecast: 72 / 42 °F
Wind: 2 mph from North

Location: Koeln / Bonn

Current Time: Apr 10, 2020 at 11:43:21 am

Latest Report: Apr 10, 2020 at 10:50 am


Visibility: 10 mi

Pressure: 30.30 "Hg

Humidity: 49%

Dew Point: 43 °F

Location of TroisdorfLocation

Past Weather in Troisdorf — Graph

°F

Troisdorf Temperature Yesterday

Maximum temperature yesterday: 75 °F (at 3:20 pm)
Minimum temperature yesterday: 43 °F (at 4:50 am)
Average temperature yesterday: 58 °F

High & Low Weather Summary for the Past Weeks

 TemperatureHumidityPressure
High77 °F (Apr 8, 3:50 pm)100% (Mar 31, 12:50 am)30.48 "Hg (Mar 31, 12:50 am)
Low25 °F (Apr 1, 5:20 am)19% (Apr 6, 1:50 pm)29.86 "Hg (Apr 2, 6:20 pm)
Average49 °F56%30.20 "Hg
* Reported Mar 26 9:20 am — Apr 10 10:20 am, Troisdorf. Weather by CustomWeather, © 2020

Note: Actual official high and low records may vary slightly from our data, if they occured in-between our weather recording intervals... More about our weather records

Troisdorf Weather History for the Previous 24 Hours

Scroll right to see more
 ConditionsComfort  
Time TempWeatherWind HumidityBarometerVisibility
10:20 am
Fri, Apr 10
61 °FSunny.2 mph52%30.30 "Hg10 mi
9:50 am59 °FPassing clouds.3 mph55%30.30 "HgN/A
9:20 am55 °FSunny.1 mph63%30.30 "Hg10 mi
8:50 am50 °FSunny.2 mph76%30.30 "Hg10 mi
8:20 am46 °FSunny.3 mph87%30.30 "Hg10 mi
7:50 am45 °FSunny.1 mph81%30.30 "Hg10 mi
7:20 am41 °FSunny.1 mph93%30.30 "Hg10 mi
6:50 am41 °FSunny.3 mph93%30.30 "Hg10 mi
6:20 am41 °FClear.5 mph93%30.27 "Hg10 mi
5:50 am43 °FClear.5 mph87%30.27 "Hg10 mi
5:20 am43 °FClear.5 mph87%30.27 "Hg10 mi
4:50 am45 °FClear.3 mph87%30.30 "Hg10 mi
4:20 am45 °FClear.3 mph81%30.30 "Hg10 mi
3:50 am43 °FClear.2 mph87%30.27 "Hg10 mi
3:20 am45 °FClear.2 mph87%30.27 "Hg10 mi
2:50 am46 °FClear.2 mph82%30.27 "Hg10 mi
2:20 am48 °FClear.2 mph76%30.27 "Hg10 mi
1:50 am46 °FClear.2 mph76%30.27 "Hg10 mi
1:20 am48 °FClear.3 mph76%30.27 "Hg10 mi
12:50 am50 °FClear.5 mph71%30.30 "Hg10 mi
12:20 am52 °FClear.5 mph67%30.27 "Hg10 mi
11:50 pm
Thu, Apr 9
55 °FClear.6 mph59%30.27 "Hg10 mi
11:20 pm55 °FClear.5 mph59%30.27 "Hg10 mi
10:50 pm57 °FClear.6 mph55%30.27 "Hg10 mi
10:20 pm59 °FClear.6 mph51%30.27 "Hg10 mi
9:20 pm63 °FClear.8 mph45%30.27 "Hg10 mi
8:50 pm63 °FClear.9 mph49%30.24 "Hg10 mi
8:20 pm64 °FClear.9 mph46%30.24 "Hg10 mi
7:50 pm68 °FSunny.12 mph40%30.24 "Hg10 mi
7:20 pm70 °FSunny.10 mph38%30.21 "Hg10 mi
6:50 pm70 °FPassing clouds.9 mph40%30.21 "HgN/A
6:20 pm72 °FPassing clouds.9 mph36%30.21 "HgN/A
5:50 pm72 °FSunny.12 mph36%30.21 "Hg10 mi
5:20 pm72 °FPassing clouds.14 mph36%30.21 "HgN/A
4:50 pm73 °FSunny.14 mph33%30.21 "Hg10 mi
4:20 pm73 °FPassing clouds.13 mph33%30.21 "HgN/A
3:50 pm73 °FPassing clouds.13 mph33%30.21 "HgN/A
3:20 pm75 °FPassing clouds.14 mph34%30.21 "HgN/A
2:50 pm73 °FSunny.13 mph38%30.21 "Hg10 mi
1:50 pm72 °FPassing clouds.8 mph41%30.24 "HgN/A
1:20 pm72 °FPassing clouds.8 mph41%30.24 "HgN/A
12:50 pm68 °FPassing clouds.6 mph43%30.24 "HgN/A
12:20 pm66 °FPassing clouds.6 mph46%30.24 "HgN/A
11:50 am64 °FPassing clouds.5 mph49%30.24 "HgN/A
11:20 am63 °FPassing clouds.6 mph52%30.24 "HgN/A
Weather by CustomWeather, © 2020

See weather overview

Advertising